Date String (YYYY-MM-DD hh:mm:ss) UTC,Instrument flags,Ambient pressure (hPa),Sample flow (lpm),Bypass flow (lpm),Sample temperature (°C),Ambient temperature (°C),ASC tube jacket temperature (°C),LED temperature (°C),Box temperature (°C),Sample RH (%),Span deviation,Mass concentration (μg/m³),Mass concentration (μg/m³),Mass concentration (μg/m³)
DateTimeUTC,F1_M11,P_M11,Q1_M11,Q2_M11,T1_M11,T2_M11,T3_M11,T4_M11,T5_M11,U1_M11,ZSPAN_M11,X0_M11,X2_M11,X1_M11
2021-11-29 12:00:00,,0829.0,5.01,0.00,29.2,28.3,00.0,38.2,30.9,11.4,0000.0,0001.03,0000.28,0000.16
2021-11-29 12:01:00,,0828.6,4.98,0.00,29.1,28.3,00.0,38.2,30.9,11.4,0000.0,0001.02,0000.28,0000.15
2021-11-29 12:02:00,,0828.6,5.01,0.00,29.1,28.3,00.0,38.2,30.9,11.4,0000.0,0001.01,0000.27,0000.15
2021-11-29 12:03:00,,0828.5,5.01,0.00,29.1,28.3,00.0,38.2,30.8,11.4,0000.0,0001.02,0000.27,0000.14
2021-11-29 12:04:00,,0828.6,4.99,0.00,29.1,28.3,00.0,38.2,30.8,11.4,0000.0,0000.80,0000.26,0000.14
2021-11-29 12:05:00,,0829.0,5.01,0.00,29.1,28.3,00.0,38.2,30.8,11.4,0000.0,0000.60,0000.26,0000.14
2021-11-29 12:06:00,,0828.8,5.00,0.00,29.1,28.3,00.0,38.2,30.8,11.3,0000.0,0000.57,0000.25,0000.13
2021-11-29 12:07:00,,0828.5,5.00,0.00,29.1,28.3,00.0,38.2,30.8,11.2,0000.0,0000.48,0000.23,0000.13
2021-11-29 12:08:00,,0828.6,4.99,0.00,29.1,28.2,00.0,38.2,30.8,11.3,0000.0,0000.62,0000.26,0000.13
2021-11-29 12:09:00,,0828.5,5.01,0.00,29.1,28.2,00.0,38.2,30.8,11.3,0000.0,0000.62,0000.24,0000.13
2021-11-29 12:10:00,,0829.0,5.00,0.00,29.1,28.2,00.0,38.1,30.7,11.4,0000.0,0000.64,0000.25,0000.13
2021-11-29 12:11:00,,0829.1,5.00,0.00,29.1,28.2,00.0,38.1,30.7,11.4,0000.0,0000.66,0000.25,0000.13
2021-11-29 12:12:00,,0829.1,5.01,0.00,29.1,28.2,00.0,38.1,30.7,11.4,0000.0,0000.68,0000.25,0000.13
2021-11-29 12:13:00,,0828.7,5.01,0.00,29.1,28.2,00.0,38.1,30.7,11.4,0000.0,0000.74,0000.28,0000.13
2021-11-29 12:14:00,,0828.7,4.99,0.00,29.1,28.2,00.0,38.1,30.7,11.4,0000.0,0000.73,0000.29,0000.13
2021-11-29 12:15:00,,0828.9,5.00,0.00,29.1,28.2,00.0,38.1,30.7,11.4,0000.0,0000.81,0000.30,0000.14
2021-11-29 12:16:00,,0829.1,5.01,0.00,29.1,28.2,00.0,38.1,30.8,11.4,0000.0,0000.90,0000.32,0000.14
2021-11-29 12:17:00,,0828.8,4.99,0.00,29.1,28.1,00.0,38.1,30.7,11.4,0000.0,0000.97,0000.36,0000.14
2021-11-29 12:18:00,,0828.6,5.02,0.00,29.1,28.1,00.0,38.1,30.8,11.4,0000.0,0000.94,0000.34,0000.14
2021-11-29 12:19:00,,0828.7,5.00,0.00,29.1,28.1,00.0,38.1,30.8,11.4,0000.0,0000.73,0000.30,0000.14
2021-11-29 12:20:00,,0829.0,4.99,0.00,29.1,28.1,00.0,38.1,30.7,11.4,0000.0,0000.80,0000.33,0000.14
2021-11-29 12:21:00,,0828.5,5.01,0.00,29.1,28.1,00.0,38.1,30.7,11.4,0000.0,0000.89,0000.34,0000.14
2021-11-29 12:22:00,,0828.4,4.99,0.00,29.0,28.1,00.0,38.1,30.7,11.4,0000.0,0000.93,0000.35,0000.14
2021-11-29 12:23:00,,0828.5,5.00,0.00,29.0,28.1,00.0,38.1,30.7,11.4,0000.0,0000.91,0000.34,0000.14
2021-11-29 12:24:00,,0828.7,5.00,0.00,29.0,28.1,00.0,38.1,30.7,11.4,0000.0,0000.85,0000.31,0000.14
2021-11-29 12:25:00,,0828.5,5.00,0.00,29.0,28.1,00.0,38.1,30.7,11.5,0000.0,0000.83,0000.31,0000.13
2021-11-29 12:26:00,,0828.5,5.00,0.00,29.0,28.1,00.0,38.1,30.7,11.4,0000.0,0001.68,0000.28,0000.13
2021-11-29 12:27:00,,0828.6,5.01,0.00,29.0,28.0,00.0,38.1,30.7,11.4,0000.0,0001.99,0000.26,0000.14
2021-11-29 12:28:00,,0829.1,5.01,0.00,29.0,28.0,00.0,38.1,30.7,11.5,0000.0,0001.94,0000.23,0000.13
2021-11-29 12:29:00,,0829.0,4.98,0.00,29.0,28.0,00.0,38.1,30.7,11.5,0000.0,0001.93,0000.22,0000.13
2021-11-29 12:30:00,,0828.8,5.01,0.00,29.0,28.1,00.0,38.1,30.7,11.5,0000.0,0001.92,0000.22,0000.13
2021-11-29 12:31:00,,0829.1,4.99,0.00,29.0,28.1,00.0,38.0,30.7,11.5,0000.0,0001.78,0000.19,0000.13
2021-11-29 12:32:00,,0828.7,5.00,0.00,29.0,28.1,00.0,38.0,30.7,11.5,0000.0,0001.66,0000.18,0000.14
2021-11-29 12:33:00,,0828.6,5.01,0.00,29.0,28.0,00.0,38.0,30.7,11.5,0000.0,0001.62,0000.17,0000.14
2021-11-29 12:34:00,,0828.7,4.98,0.00,29.0,28.0,00.0,38.0,30.6,11.5,0000.0,0001.62,0000.17,0000.14
2021-11-29 12:35:00,,0828.5,5.02,0.00,29.0,28.0,00.0,38.0,30.6,11.5,0000.0,0001.64,0000.18,0000.14
2021-11-29 12:36:00,,0829.0,5.01,0.00,29.0,28.0,00.0,38.0,30.6,11.6,0000.0,0001.65,0000.18,0000.15
2021-11-29 12:37:00,,0828.8,4.98,0.00,29.0,28.0,00.0,38.0,30.6,11.6,0000.0,0000.99,0000.19,0000.15
2021-11-29 12:38:00,,0828.7,5.01,0.00,29.0,28.0,00.0,38.0,30.6,11.6,0000.0,0000.72,0000.19,0000.15
2021-11-29 12:39:00,,0828.6,5.01,0.00,29.0,28.0,00.0,38.0,30.7,11.6,0000.0,0001.18,0000.21,0000.15
2021-11-29 12:40:00,,0828.8,4.99,0.00,29.0,28.0,00.0,38.0,30.7,11.6,0000.0,0001.25,0000.21,0000.15
2021-11-29 12:41:00,,0829.1,5.01,0.00,29.0,28.0,00.0,38.0,30.7,11.6,0000.0,0001.26,0000.21,0000.15
2021-11-29 12:42:00,,0828.9,4.99,0.00,29.0,28.1,00.0,38.0,30.7,11.6,0000.0,0001.41,0000.21,0000.14
2021-11-29 12:43:00,,0829.0,5.01,0.00,29.0,28.1,00.0,38.0,30.7,11.6,0000.0,0001.41,0000.21,0000.14
2021-11-29 12:44:00,,0828.7,5.00,0.00,29.0,28.1,00.0,38.0,30.7,11.6,0000.0,0001.40,0000.21,0000.14
2021-11-29 12:45:00,,0828.9,5.00,0.00,28.9,28.0,00.0,38.0,30.7,11.6,0000.0,0001.40,0000.21,0000.14
2021-11-29 12:46:00,,0828.9,4.99,0.00,28.9,28.0,00.0,38.0,30.6,11.6,0000.0,0001.39,0000.20,0000.14
2021-11-29 12:47:00,,0828.9,5.02,0.00,28.9,28.0,00.0,38.0,30.6,11.6,0000.0,0001.47,0000.23,0000.14
2021-11-29 12:48:00,,0829.0,4.99,0.00,28.9,28.0,00.0,38.0,30.6,11.7,0000.0,0001.29,0000.24,0000.14
2021-11-29 12:49:00,,0828.9,4.99,0.00,28.9,27.9,00.0,38.0,30.5,11.7,0000.0,0001.09,0000.23,0000.14
2021-11-29 12:50:00,,0828.9,5.00,0.00,28.8,27.9,00.0,38.0,30.5,11.7,0000.0,0000.60,0000.22,0000.14
2021-11-29 12:51:00,,0828.7,5.00,0.00,28.8,27.9,00.0,37.9,30.5,11.7,0000.0,0000.55,0000.22,0000.14
2021-11-29 12:52:00,,0828.7,4.99,0.00,28.8,27.9,00.0,37.9,30.5,11.7,0000.0,0000.53,0000.23,0000.14
2021-11-29 12:53:00,,0828.6,5.00,0.00,28.8,27.9,00.0,37.9,30.5,11.7,0000.0,0000.40,0000.22,0000.14
2021-11-29 12:54:00,,0828.5,4.99,0.00,28.8,27.9,00.0,37.9,30.5,11.7,0000.0,0000.43,0000.24,0000.14
2021-11-29 12:55:00,,0828.8,5.01,0.00,28.8,27.9,00.0,37.9,30.5,11.8,0000.0,0000.43,0000.24,0000.14
2021-11-29 12:56:00,,0828.5,4.99,0.00,28.8,27.9,00.0,37.9,30.5,11.8,0000.0,0000.43,0000.24,0000.14
2021-11-29 12:57:00,,0828.7,5.00,0.00,28.8,27.9,00.0,37.9,30.5,11.8,0000.0,0000.47,0000.26,0000.14
2021-11-29 12:58:00,,0828.7,5.01,0.00,28.8,28.0,00.0,37.9,30.5,11.8,0000.0,0000.46,0000.25,0000.13
2021-11-29 12:59:00,,0829.1,5.00,0.00,28.8,28.0,00.0,37.9,30.6,11.7,0000.0,0000.46,0000.25,0000.12
